Location: Unspecified
(40.2050°N, 0.0000°E)
Time: 02:51:48
(UTC+00:00)

CSL-04 DEB - Visible Passes

Search period start: 04 April 2026 00:00
Search period end: 14 April 2026 00:00
Orbit: 620 x 714 km, 98.5° (Epoch: 29 March)

Date Brightness Start Highest point End Pass type
(mag) Time Alt. Az. Time Alt. Az. Time Alt. Az.
4 Apr ? 21:09:28 11° NNE 21:09:28 11° NNE 21:09:54 10° NNE visible
4 Apr ? 22:47:36 14° NNW 22:47:36 14° NNW 22:48:13 10° NNW visible
5 Apr ? 21:41:26 16° NNE 21:41:26 16° NNE 21:42:37 10° N visible
6 Apr ? 22:13:23 18° N 22:13:23 18° N 22:14:41 10° N visible
7 Apr ? 21:07:13 12° NE 21:07:13 12° NE 21:07:53 10° NNE visible
7 Apr ? 22:45:21 16° NNW 22:45:21 16° NNW 22:46:20 10° NNW visible
8 Apr ? 21:39:10 18° NNE 21:39:10 18° NNE 21:40:39 10° N visible
8 Apr ? 23:17:18 11° NW 23:17:18 11° NW 23:17:32 10° NW visible
9 Apr ? 22:11:07 21° N 22:11:07 21° N 22:12:45 10° N visible
10 Apr ? 21:04:56 12° NE 21:04:56 12° NE 21:05:49 10° NNE visible
10 Apr ? 22:43:04 19° NNW 22:43:04 19° NNW 22:44:26 10° NNW visible
11 Apr ? 21:36:53 19° NNE 21:36:53 19° NNE 21:38:39 10° N visible
11 Apr ? 23:15:01 13° NW 23:15:01 13° NW 23:15:39 10° NW visible
12 Apr ? 22:08:49 24° N 22:08:49 24° N 22:10:46 10° N visible
13 Apr ? 21:02:38 13° NE 21:02:38 13° NE 21:03:42 10° NNE visible
13 Apr ? 22:40:46 22° NNW 22:40:46 22° NNW 22:42:29 10° NNW visible
